Home   Weather   Knox   Past weeks

Flag for USA Past Weather in Knox, Indiana, USA — Yesterday and Last 2 Weeks

Now
76 °F

Passing clouds.


Feels Like: 78 °F
Forecast: 50 / 75 °F
Wind: 10 mph from South

Location: Porter County Municipal Airport

Current Time: Apr 25, 2017 at 1:36:45 pm

Latest Report: Apr 25, 2017 at 12:56 pm


Visibility: 10 mi

Pressure: 29.69 "Hg

Humidity: 43%

Dew Point: 52 °F

Location of KnoxLocation

Past Weather in Knox — Graph

°F

Knox Temperature Yesterday

Maximum temperature yesterday: 76 °F (at 3:56 pm)
Minimum temperature yesterday: 45 °F (at 3:56 am)
Average temperature yesterday: 61 °F

High & Low Weather Summary for the Past Weeks

 TemperatureHumidityPressure
High81 °F (Apr 15, 2:56 pm)100% (Apr 11, 12:56 am)30.42 "Hg (Apr 11, 12:56 am)
Low38 °F (Apr 12, 5:56 am)15% (Apr 23, 3:56 pm)29.72 "Hg (Apr 25, 11:56 am)
Average58 °F65%30.08 "Hg
* Reported Apr 10 11:56 am — Apr 25 11:56 am, Knox, Weather by CustomWeather, © 2017

Note: Actual official high and low records may vary slightly from our data, if they occured in-between our weather recording intervals... More about our weather records

Advertising

Knox Weather History for the Previous 24 Hours

Scroll right to see more
 ConditionsComfort  
Time TempWeatherWind HumidityBarometerVisibility
11:56 am
Tue, Apr 25
74 °FSunny.8 mph43%29.72 "Hg10 mi
10:56 am71 °FSunny.10 mph55%29.73 "Hg10 mi
9:56 am68 °FSunny.12 mph61%29.74 "Hg10 mi
8:56 am63 °FSunny.14 mph73%29.75 "Hg10 mi
7:56 am60 °FSunny.12 mph78%29.75 "Hg10 mi
6:56 am54 °FSunny.6 mph86%29.76 "Hg10 mi
5:56 am48 °FSunny.6 mph89%29.75 "Hg10 mi
4:56 am49 °FSunny.6 mph84%29.76 "Hg10 mi
3:56 am49 °FClear.6 mph80%29.75 "Hg10 mi
2:56 am52 °FClear.7 mph72%29.75 "Hg10 mi
1:56 am53 °FClear.7 mph64%29.76 "Hg10 mi
12:56 am54 °FClear.7 mph59%29.77 "Hg10 mi
11:56 pm
Mon, Apr 24
56 °FClear.6 mph53%29.78 "Hg10 mi
10:56 pm56 °FClear.10 mph53%29.78 "Hg10 mi
9:56 pm58 °FClear.8 mph47%29.78 "Hg10 mi
8:56 pm60 °FClear.9 mph44%29.79 "Hg10 mi
7:56 pm65 °FClear.7 mph34%29.79 "Hg10 mi
6:56 pm70 °FClear.10 mph27%29.80 "Hg10 mi
5:56 pm73 °FSunny.14 mph21%29.81 "Hg10 mi
4:56 pm75 °FSunny.13 mph18%29.83 "Hg10 mi
3:56 pm76 °FSunny.9 mph18%29.85 "Hg10 mi
2:56 pm75 °FSunny.10 mph17%29.88 "Hg10 mi
1:56 pm73 °FSunny.12 mph18%29.91 "Hg10 mi
Weather by CustomWeather, © 2017

See weather overviewHow to use our weather pages